STARLINK-36241

Last updated on Sun Apr 12 2026 00:02:06 GMT+0000 (Coordinated Universal Time)

1 68154U 26049N 26101.31140441 .00216133 00000+0 14093-2 0 9997 2 68154 97.2846 122.1683 0003155 99.7267 260.4354 15.75256550 4558
UTC large
Height (km)
Speed (km/s)
/
Latitude / Longitude
Inclination (degrees)
Orbital Period (minutes)
Azimuth
Elevation
Range (km)
Doppler Factor

Next 0 passes for location: London (51.5072 / 0.1276)

Sorry there are no passes over London.
STARLINK-36241